CQ0XPA-11 SANTAREM PT current weather conditions

sailwx.info

Wind from 270 at 0 knots gusting 4

Air temperature 14.4° C
Dewpoint 8.6° C

Last reported at 2018-Feb-20 11:08 UTC.
Time now 2018-Feb-20 12:04 UTC

Location: N 39°13' W 008°25'.
View on Google Maps.

See reports from other nearby stations

  
Tides and Currents Weather Stations Pressure Air Temp Water Temp Dewpoint Dewpoint Depression Visibility Wind Speed Wind Dir Waves Ship Positions
date/time (UTC)wind fromknots sea level pressurealtimeterstation pressurevisibilityair tempwater tempwave heightnotes
2018-Feb-20 11:08 270 0 gusting 4 14.4
2018-Feb-20 11:04 14.4
2018-Feb-20 10:58 157 3 gusting 3 13.9
2018-Feb-20 10:54 157 0 gusting 2 13.9
2018-Feb-20 10:48 157 2 gusting 3 13.3
2018-Feb-20 10:44 13.3
2018-Feb-20 10:38 157 1 gusting 2 13.3
2018-Feb-20 10:34 157 2 gusting 3 13.3
2018-Feb-20 10:28 157 2 gusting 2 13.3
2018-Feb-20 10:24 13.3
2018-Feb-20 10:20 270 0 gusting 0 13.3
2018-Feb-20 10:14 270 12.2
2018-Feb-20 10:09 12.2
2018-Feb-20 10:03 157 0 gusting 2 11.7
2018-Feb-20 09:59 270 0 gusting 2 11.7
2018-Feb-20 09:53 157 11.7
2018-Feb-20 09:49 315 11.1
2018-Feb-20 09:43 157 11.1
2018-Feb-20 09:39 270 0 gusting 2 11.7
2018-Feb-20 09:33 315 0 gusting 0 11.7
2018-Feb-20 09:29 180 11.1
2018-Feb-20 09:23 135 0 gusting 0 11.1
2018-Feb-20 09:19 135 10.6
2018-Feb-20 09:15 045 10.0
2018-Feb-20 09:08 315 8.9
2018-Feb-20 09:04 315 8.3
2018-Feb-20 08:58 180 7.8
2018-Feb-20 08:54 315 6.7
2018-Feb-20 08:48 315 6.1
2018-Feb-20 08:44 180 5.6
2018-Feb-20 08:38 180 5.0
2018-Feb-20 08:34 180 4.4
2018-Feb-20 08:28 135 3.3
2018-Feb-20 08:24 135 3.3
2018-Feb-20 08:20 135 2.8
2018-Feb-20 08:13 180 3.3
2018-Feb-20 08:09 270 3.3
2018-Feb-20 08:01 135 3.3
2018-Feb-20 07:59 090 3.3
2018-Feb-20 07:53 101 3.9
2018-Feb-20 07:43 135 3.3
2018-Feb-20 07:31 315 3.3
2018-Feb-20 07:27 315 3.3
2018-Feb-20 07:23 090 3.3
2018-Feb-20 07:19 090 2.8
2018-Feb-20 07:14 090 2.8
2018-Feb-20 07:08 315 3.3
2018-Feb-20 07:04 303 3.3
2018-Feb-20 06:58 157 2.8
2018-Feb-20 06:54 292 2.8
2018-Feb-20 06:48 045 2.8
2018-Feb-20 06:44 045 2.2
2018-Feb-20 06:38 135 2.8
2018-Feb-20 06:34 270 2.8
2018-Feb-20 06:30 270 2.8
2018-Feb-20 06:24 180 2.8
2018-Feb-20 06:20 180 3.3
2018-Feb-20 06:13 180 3.3
2018-Feb-20 06:09 045 2.8
2018-Feb-20 06:03 045 2.8
2018-Feb-20 05:59 135 2.8
2018-Feb-20 05:53 180 2.8
2018-Feb-20 05:49 270 2.8
2018-Feb-20 05:43 157 3.3
2018-Feb-20 05:39 315 3.3
2018-Feb-20 05:33 180 3.3
2018-Feb-20 05:29 090 3.3
2018-Feb-20 05:25 135 3.3
2018-Feb-20 05:19 135 3.3
2018-Feb-20 05:14 157 3.3
2018-Feb-20 05:08 157 3.3
2018-Feb-20 05:04 315 3.3
2018-Feb-20 04:58 315 3.3
2018-Feb-20 04:54 022 3.3
2018-Feb-20 04:48 090 3.3
2018-Feb-20 04:44 270 3.9
2018-Feb-20 04:38 315 3.9
2018-Feb-20 04:34 180 3.3
2018-Feb-20 04:30 135 3.9
2018-Feb-20 04:24 180 3.9
2018-Feb-20 04:20 270 3.9
2018-Feb-20 04:13 270 3.9
2018-Feb-20 04:09 270 3.9
2018-Feb-20 04:03 180 3.9
2018-Feb-20 03:59 090 3.9
2018-Feb-20 03:53 292 0 gusting 1 3.9
2018-Feb-20 03:49 180 4.4
2018-Feb-20 03:43 180 4.4
2018-Feb-20 03:39 045 4.4
2018-Feb-20 03:33 045 4.4
2018-Feb-20 03:29 045 4.4
2018-Feb-20 03:25 045 4.4
2018-Feb-20 03:18 045 4.4
2018-Feb-20 03:14 045 3.9
2018-Feb-20 03:08 045 3.9
2018-Feb-20 03:04 045 4.4
2018-Feb-20 02:58 090 4.4
2018-Feb-20 02:54 315 4.4
2018-Feb-20 02:48 090 5.0
2018-Feb-20 02:44 090 4.4
2018-Feb-20 02:38 090 4.4
2018-Feb-20 02:34 090 4.4
2018-Feb-20 02:30 090 4.4
2018-Feb-20 02:24 180 5.0
2018-Feb-20 02:19 135 5.0
2018-Feb-20 02:13 270 5.0
2018-Feb-20 02:09 045 5.0
2018-Feb-20 02:03 045 5.0
2018-Feb-20 01:59 135 5.0
2018-Feb-20 01:53 135 5.0
2018-Feb-20 01:49 135 5.6
2018-Feb-20 01:43 135 6.1
2018-Feb-20 01:39 315 6.1
2018-Feb-20 01:35 270 6.1
2018-Feb-20 01:29 270 6.1
2018-Feb-20 01:25 270 6.1
2018-Feb-20 01:18 090 6.1
2018-Feb-20 01:14 090 6.1
2018-Feb-20 01:08 090 6.1
2018-Feb-20 01:04 090 6.1
2018-Feb-20 00:58 090 6.1
2018-Feb-20 00:54 090 6.1
2018-Feb-20 00:48 315 6.7
2018-Feb-20 00:44 315 6.7
2018-Feb-20 00:38 135 6.7
2018-Feb-20 00:34 135 7.2
2018-Feb-20 00:30 135 7.2
2018-Feb-20 00:24 315 7.8
2018-Feb-20 00:19 270 7.8
2018-Feb-20 00:13 270 8.3
2018-Feb-20 00:09 270 8.3
2018-Feb-20 00:03 270 8.9
2018-Feb-19 23:59 180 9.4
2018-Feb-19 23:53 101 9.4
2018-Feb-19 23:49 315 9.4
2018-Feb-19 23:43 270 9.4
2018-Feb-19 23:39 315 0 gusting 1 9.4
2018-Feb-19 23:35 315 9.4
2018-Feb-19 23:29 270 0 gusting 1 10.0
2018-Feb-19 23:25 315 1 gusting 1 10.0
2018-Feb-19 23:18 315 0 gusting 2 10.0
2018-Feb-19 23:06 112 10.0
2018-Feb-19 23:04 292 10.0
2018-Feb-19 22:58 292 1 gusting 2 10.0
2018-Feb-19 22:54 315 10.0
2018-Feb-19 22:48 180 10.0
2018-Feb-19 22:44 315 10.0
2018-Feb-19 22:38 315 10.0
2018-Feb-19 22:34 270 10.0
2018-Feb-19 22:30 135 10.0
2018-Feb-19 22:23 180 10.0
2018-Feb-19 22:19 10.6
2018-Feb-19 22:13 180 0 gusting 1 10.6
2018-Feb-19 22:09 315 10.6
2018-Feb-19 22:03 270 10.6
2018-Feb-19 21:59 315 1 gusting 1 10.6
2018-Feb-19 21:53 281 2 gusting 2 10.6
2018-Feb-19 21:49 270 1 gusting 3 10.6
2018-Feb-19 21:43 270 1 gusting 1 10.6
2018-Feb-19 21:39 315 2 gusting 2 10.6
2018-Feb-19 21:33 180 0 gusting 2 10.6
2018-Feb-19 21:29 315 10.6
2018-Feb-19 21:24 315 1 gusting 3 10.6
2018-Feb-19 21:18 157 0 gusting 3 10.6
2018-Feb-19 21:14 315 0 gusting 2 10.6
2018-Feb-19 21:08 315 0 gusting 2 10.6
2018-Feb-19 21:04 090 0 gusting 2 10.6
2018-Feb-19 20:58 090 2 gusting 2 10.6
2018-Feb-19 20:54 180 10.6
2018-Feb-19 20:48 10.6
2018-Feb-19 20:44 180 11.1
2018-Feb-19 20:40 315 1 gusting 1 11.1
2018-Feb-19 20:34 090 11.1
2018-Feb-19 20:30 315 1 gusting 2 11.1
2018-Feb-19 20:23 315 2 gusting 2 11.1
2018-Feb-19 20:19 180 0 gusting 5 11.1
2018-Feb-19 20:13 292 0 gusting 2 11.1
2018-Feb-19 20:09 270 11.1
2018-Feb-19 20:03 292 3 gusting 4 11.1
2018-Feb-19 19:59 180 2 gusting 2 11.1
2018-Feb-19 19:53 180 2 gusting 3 11.7
2018-Feb-19 19:49 292 0 gusting 2 11.7
2018-Feb-19 19:43 135 2 gusting 5 11.7
2018-Feb-19 19:39 292 0 gusting 3 11.7
2018-Feb-19 19:35 292 0 gusting 1 11.7
2018-Feb-19 19:26 292 0 gusting 1 11.7
2018-Feb-19 19:24 135 12.2
2018-Feb-19 19:18 135 0 gusting 1 12.2
2018-Feb-19 19:14 180 0 gusting 2 12.2
2018-Feb-19 19:08 270 12.2
2018-Feb-19 19:04 326 0 gusting 2 12.2
2018-Feb-19 18:58 292 1 gusting 1 12.2
2018-Feb-19 18:54 090 0 gusting 2 12.8
2018-Feb-19 18:48 270 0 gusting 3 12.8
2018-Feb-19 18:44 225 1 gusting 3 12.8
2018-Feb-19 18:40 270 0 gusting 2 12.8
2018-Feb-19 18:34 270 12.8
2018-Feb-19 18:30 090 13.3
2018-Feb-19 18:23 045 0 gusting 1 13.3
2018-Feb-19 18:19 270 0 gusting 5 13.3
2018-Feb-19 18:13 090 0 gusting 3 13.9
2018-Feb-19 18:09 270 13.9
2018-Feb-19 18:03 090 2 gusting 6 13.9
2018-Feb-19 17:59 090 1 gusting 2 13.9
2018-Feb-19 17:53 090 2 gusting 5 14.4
2018-Feb-19 17:49 270 0 gusting 3 14.4
2018-Feb-19 17:43 090 0 gusting 2 14.4
2018-Feb-19 17:39 270 14.4
2018-Feb-19 17:35 292 1 gusting 4 15.0
2018-Feb-19 17:28 090 0 gusting 3 15.0
2018-Feb-19 17:24 090 1 gusting 2 15.0
2018-Feb-19 17:18 315 0 gusting 3 15.0
2018-Feb-19 17:14 270 0 gusting 4 15.6
2018-Feb-19 17:08 090 2 gusting 2 15.6
2018-Feb-19 17:04 292 0 gusting 1 15.6
2018-Feb-19 16:58 090 1 gusting 4 15.6
2018-Feb-19 16:54 090 2 gusting 2 15.6
2018-Feb-19 16:48 045 15.6
2018-Feb-19 16:44 270 0 gusting 3 15.6
2018-Feb-19 16:40 15.6
2018-Feb-19 16:34 090 3 gusting 4 16.1
2018-Feb-19 16:29 090 16.1
2018-Feb-19 16:23 090 1 gusting 4 16.1
2018-Feb-19 16:19 292 2 gusting 5 16.1
2018-Feb-19 16:13 281 0 gusting 3 16.1
2018-Feb-19 16:09 090 0 gusting 3 16.1
2018-Feb-19 16:03 045 0 gusting 4 16.1
2018-Feb-19 15:59 270 1 gusting 5 16.1
2018-Feb-19 15:53 090 3 gusting 5 16.1
2018-Feb-19 15:49 090 2 gusting 6 16.7
2018-Feb-19 15:45 090 3 gusting 6 16.7
2018-Feb-19 15:39 090 3 gusting 7 16.7
2018-Feb-19 15:35 090 1 gusting 6 16.7
2018-Feb-19 15:28 16.7
2018-Feb-19 15:24 090 6 gusting 7 17.2
2018-Feb-19 15:06 270 4 gusting 6 17.2
2018-Feb-19 14:54 270 5 gusting 5 17.8
2018-Feb-19 14:50 281 2 gusting 4 17.8
2018-Feb-19 14:44 180 0 gusting 4 18.3
2018-Feb-19 14:39 045 0 gusting 6 18.3
2018-Feb-19 14:33 315 1 gusting 5 18.3
2018-Feb-19 14:29 090 1 gusting 4 18.3
2018-Feb-19 14:23 090 5 gusting 5 18.3
2018-Feb-19 14:19 090 3 gusting 6 18.9
2018-Feb-19 14:13 090 0 gusting 4 18.9
2018-Feb-19 14:09 090 1 gusting 6 18.9
2018-Feb-19 14:03 090 6 gusting 8 18.9
2018-Feb-19 13:59 090 2 gusting 6 19.4
2018-Feb-19 13:55 090 2 gusting 4 19.4
2018-Feb-19 13:49 180 18.9
2018-Feb-19 13:45 18.9
2018-Feb-19 13:38 090 3 gusting 5 19.4
2018-Feb-19 13:34 090 1 gusting 5 19.4
2018-Feb-19 13:28 270 2 gusting 3 20.0
2018-Feb-19 13:24 270 0 gusting 4 20.0
2018-Feb-19 13:18 022 20.0
2018-Feb-19 13:14 292 0 gusting 1 20.0
2018-Feb-19 13:08 090 0 gusting 0 19.4
2018-Feb-19 13:04 135 19.4
2018-Feb-19 12:58 090 0 gusting 2 18.9
2018-Feb-19 12:54 090 0 gusting 2 18.9
2018-Feb-19 12:50 180 0 gusting 1 18.3
2018-Feb-19 12:44 281 0 gusting 2 18.3
2018-Feb-19 12:39 270 0 gusting 3 18.3
2018-Feb-19 12:33 090 17.8
2018-Feb-19 12:29 292 0 gusting 2 17.8
2018-Feb-19 12:23 270 1 gusting 2 17.2
2018-Feb-19 12:19 270 0 gusting 4 17.2
2018-Feb-19 12:13 090 0 gusting 2 16.7
2018-Feb-19 12:09 270 16.7
2018-Feb-19 12:03 270 0 gusting 2 16.7
2018-Feb-19 11:59 090 16.7
2018-Feb-19 11:53 090 1 gusting 3 16.7
2018-Feb-19 11:49 292 0 gusting 3 16.7
2018-Feb-19 11:45 270 2 gusting 3 16.7
2018-Feb-19 11:38 045 0 gusting 4 16.1
2018-Feb-19 11:34 270 2 gusting 2 16.1
2018-Feb-19 11:28 270 3 gusting 4 15.6
2018-Feb-19 11:24 090 1 gusting 3 15.6
2018-Feb-19 11:18 326 2 gusting 4 15.6
2018-Feb-19 11:14 315 2 gusting 3 15.6
2018-Feb-19 11:08 090 1 gusting 3 15.0
2018-Feb-19 11:04 090 0 gusting 5 15.0
2018-Feb-19 11:00 090 1 gusting 3 14.4
2018-Feb-19 10:54 292 0 gusting 3 13.9
2018-Feb-19 10:49 270 1 gusting 5 13.9
2018-Feb-19 10:43 315 1 gusting 3 13.9
2018-Feb-19 10:39 315 2 gusting 3 13.9
2018-Feb-19 10:33 090 13.9
2018-Feb-19 10:29 090 1 gusting 3 13.3
2018-Feb-19 10:23 270 1 gusting 3 13.3
2018-Feb-19 10:19 13.3
2018-Feb-19 10:13 13.3
2018-Feb-19 10:09 090 0 gusting 3 13.3
2018-Feb-19 10:05 090 3 gusting 3 13.9
2018-Feb-19 09:59 090 2 gusting 3 13.9
2018-Feb-19 09:55 315 13.9
2018-Feb-19 09:48 180 13.3
2018-Feb-19 09:44 157 0 gusting 1 13.3
2018-Feb-19 09:38 090 12.8
2018-Feb-19 09:34 090 12.2
2018-Feb-19 09:28 292 11.7
2018-Feb-19 09:24 090 11.7
2018-Feb-19 09:18 180 0 gusting 1 11.7
2018-Feb-19 09:14 225 11.1
2018-Feb-19 09:08 180 11.1
2018-Feb-19 09:04 315 11.1
2018-Feb-19 09:00 270 10.6
2018-Feb-19 08:54 180 0 gusting 1 10.6
2018-Feb-19 08:49 270 10.6
2018-Feb-19 08:43 270 10.6
2018-Feb-19 08:39 315 0 gusting 1 10.0
2018-Feb-19 08:33 135 0 gusting 1 10.0
2018-Feb-19 08:29 292 10.0
2018-Feb-19 08:19 135 9.4
2018-Feb-19 08:13 135 9.4
2018-Feb-19 08:09 135 9.4
2018-Feb-19 08:05 270 9.4
2018-Feb-19 07:59 270 9.4
2018-Feb-19 07:54 180 0 gusting 1 9.4
2018-Feb-19 07:48 225 0 gusting 2 9.4
2018-Feb-19 07:44 315 1 gusting 3 9.4
2018-Feb-19 07:38 9.4
2018-Feb-19 07:34 270 0 gusting 2 9.4
2018-Feb-19 07:28 180 9.4
2018-Feb-19 07:16 180 0 gusting 1 9.4
2018-Feb-19 07:14 135 9.4
2018-Feb-19 07:10 157 0 gusting 2 9.4
2018-Feb-19 07:04 270 9.4
2018-Feb-19 06:59 225 9.4
2018-Feb-19 06:53 180 8.9
2018-Feb-19 06:49 180 1 gusting 2 8.9
2018-Feb-19 06:43 180 0 gusting 2 8.9
2018-Feb-19 06:39 180 8.9
2018-Feb-19 06:33 045 0 gusting 2 8.9
2018-Feb-19 06:29 090 8.9
2018-Feb-19 06:23 270 0 gusting 2 8.3
2018-Feb-19 06:19 270 8.3
2018-Feb-19 06:15 225 0 gusting 2 8.3
2018-Feb-19 06:09 045 0 gusting 1 7.8
2018-Feb-19 06:05 135 7.8
2018-Feb-19 05:58 180 7.2
2018-Feb-19 05:54 090 7.2
2018-Feb-19 05:48 180 0 gusting 0 7.2
2018-Feb-19 05:44 135 7.2
2018-Feb-19 05:38 270 7.2
2018-Feb-19 05:34 090 7.2
2018-Feb-19 05:28 135 7.2
2018-Feb-19 05:24 090 7.2
2018-Feb-19 05:18 090 7.2
2018-Feb-19 05:14 090 7.2
2018-Feb-19 05:10 090 7.8
2018-Feb-19 05:03 045 7.8
2018-Feb-19 04:59 045 8.3
2018-Feb-19 04:53 180 8.3
2018-Feb-19 04:49 135 8.3
2018-Feb-19 04:43 045 8.3
2018-Feb-19 04:39 180 8.3
2018-Feb-19 04:33 135 1 gusting 1 8.3
2018-Feb-19 04:29 135 0 gusting 2 8.3
2018-Feb-19 04:23 180 0 gusting 2 8.3
2018-Feb-19 04:19 135 1 gusting 1 8.3
2018-Feb-19 04:13 180 7.8
2018-Feb-19 04:09 090 7.8
2018-Feb-19 04:05 168 1 gusting 2 7.2
2018-Feb-19 03:58 180 7.2
2018-Feb-19 03:54 180 6.7
2018-Feb-19 03:48 270 0 gusting 1 6.7
2018-Feb-19 03:44 270 6.7
2018-Feb-19 03:38 090 6.7
2018-Feb-19 03:34 270 6.7
2018-Feb-19 03:28 270 6.7
2018-Feb-19 03:24 270 6.7
2018-Feb-19 03:20 270 0 gusting 0 6.7
2018-Feb-19 03:14 135 6.1
2018-Feb-19 03:10 135 5.6
2018-Feb-19 03:03 180 5.6
2018-Feb-19 02:59 090 5.6
2018-Feb-19 02:53 090 0 gusting 0 6.1
2018-Feb-19 02:49 270 6.1
2018-Feb-19 02:43 090 6.7
2018-Feb-19 02:39 135 7.2
2018-Feb-19 02:33 135 7.2
2018-Feb-19 02:29 270 7.2
2018-Feb-19 02:25 270 7.2
2018-Feb-19 02:19 090 7.8
2018-Feb-19 02:15 090 7.8
2018-Feb-19 02:08 135 7.8
2018-Feb-19 02:04 135 7.2
2018-Feb-19 01:58 135 7.2
2018-Feb-19 01:54 135 6.7
2018-Feb-19 01:48 135 6.7
2018-Feb-19 01:44 135 6.1
2018-Feb-19 01:38 270 6.1
2018-Feb-19 01:34 270 6.1
2018-Feb-19 01:28 135 6.1
2018-Feb-19 01:24 180 6.7
2018-Feb-19 01:20 180 6.7
2018-Feb-19 01:14 270 6.7
2018-Feb-19 01:09 270 6.7
2018-Feb-19 01:03 270 6.7
2018-Feb-19 00:59 270 6.7
2018-Feb-19 00:53 045 6.1
2018-Feb-19 00:49 045 6.1
2018-Feb-19 00:43 045 5.6
2018-Feb-19 00:39 045 5.6
2018-Feb-19 00:33 045 5.6
2018-Feb-19 00:29 5.0
2018-Feb-19 00:23 135 5.0
2018-Feb-19 00:19 135 5.0
2018-Feb-19 00:15 135 5.0
2018-Feb-19 00:08 135 5.6
2018-Feb-19 00:04 135 5.6
2018-Feb-18 23:58 270 6.1
2018-Feb-18 23:54 135 6.1
2018-Feb-18 23:48 270 6.1
2018-Feb-18 23:44 270 5.6
2018-Feb-18 23:38 045 5.6
2018-Feb-18 23:17 045 5.0
2018-Feb-18 23:13 180 5.6
2018-Feb-18 23:09 180 5.6
2018-Feb-18 23:03 135 5.6
2018-Feb-18 22:59 135 5.6
2018-Feb-18 22:53 270 6.1
2018-Feb-18 22:49 270 6.1
2018-Feb-18 22:43 045 6.1
2018-Feb-18 22:37 180 5.6
2018-Feb-18 22:33 270 5.6
2018-Feb-18 22:29 270 6.1
2018-Feb-18 22:25 270 6.1
2018-Feb-18 22:18 090 6.1
2018-Feb-18 22:14 090 6.1
2018-Feb-18 22:08 270 6.7
2018-Feb-18 22:04 180 6.7
2018-Feb-18 21:58 045 6.7
2018-Feb-18 21:54 045 6.7
2018-Feb-18 21:48 157 6.7
2018-Feb-18 21:44 270 7.2
2018-Feb-18 21:38 270 7.2
2018-Feb-18 21:34 270 7.2
2018-Feb-18 21:30 270 7.8
2018-Feb-18 21:23 270 7.8
2018-Feb-18 21:19 180 7.8
2018-Feb-18 21:13 090 8.3
2018-Feb-18 21:09 090 8.3
2018-Feb-18 21:03 157 8.3
2018-Feb-18 20:59 045 8.3
2018-Feb-18 20:53 270 0 gusting 2 8.9
2018-Feb-18 20:49 270 0 gusting 0 8.9
2018-Feb-18 20:43 157 8.9
2018-Feb-18 20:39 112 8.9
2018-Feb-18 20:35 045 8.9
2018-Feb-18 20:29 180 8.9
2018-Feb-18 20:24 180 8.9
2018-Feb-18 20:18 270 9.4
2018-Feb-18 20:10 270 9.4
2018-Feb-18 20:08 270 9.4
2018-Feb-18 20:04 045 10.0
2018-Feb-18 19:58 180 10.0
2018-Feb-18 19:54 180 10.6
2018-Feb-18 19:48 270 11.1
2018-Feb-18 19:44 270 11.1
2018-Feb-18 19:40 180 11.7
2018-Feb-18 19:34 135 11.7
2018-Feb-18 19:30 180 11.7
2018-Feb-18 19:23 090 0 gusting 0 11.7
2018-Feb-18 19:19 045 0 gusting 1 11.7
2018-Feb-18 19:13 090 11.7
2018-Feb-18 19:09 045 4 gusting 4 11.7
2018-Feb-18 19:03 045 11.7
2018-Feb-18 18:59 045 11.7
2018-Feb-18 18:53 045 11.7
2018-Feb-18 18:49 045 12.2
2018-Feb-18 18:43 090 12.2
2018-Feb-18 18:39 045 12.2
2018-Feb-18 18:35 045 12.2
2018-Feb-18 18:29 045 12.8
2018-Feb-18 18:24 12.8
2018-Feb-18 18:16 045 13.3
2018-Feb-18 18:14 045 13.9
2018-Feb-18 18:08 045 14.4
2018-Feb-18 18:04 045 14.4
2018-Feb-18 17:58 090 15.0
2018-Feb-18 17:54 090 15.6
2018-Feb-18 17:48 090 16.1
2018-Feb-18 17:44 180 16.1
2018-Feb-18 17:40 135 16.7
2018-Feb-18 17:34 135 17.2
2018-Feb-18 17:30 180 17.2
2018-Feb-18 17:23 180 17.2
2018-Feb-18 17:19 180 17.8
2018-Feb-18 17:13 157 0 gusting 0 17.8
2018-Feb-18 17:09 112 18.3
2018-Feb-18 17:03 135 18.3
2018-Feb-18 16:57 270 18.9
2018-Feb-18 16:53 225 4 gusting 4 18.9
2018-Feb-18 16:49 270 0 gusting 6 19.4
2018-Feb-18 16:43 056 0 gusting 3 19.4
2018-Feb-18 16:39 180 0 gusting 2 19.4
2018-Feb-18 16:35 180 0 gusting 4 19.4
2018-Feb-18 16:28 270 1 gusting 2 20.0
2018-Feb-18 16:24 270 2 gusting 3 20.0
2018-Feb-18 16:18 20.0
2018-Feb-18 16:14 180 0 gusting 2 20.0
2018-Feb-18 16:08 270 1 gusting 4 20.0
2018-Feb-18 16:04 270 0 gusting 2 19.4
2018-Feb-18 15:58 270 0 gusting 3 19.4
2018-Feb-18 15:54 19.4
2018-Feb-18 15:31 225 0 gusting 3 20.0
2018-Feb-18 15:29 135 1 gusting 2 20.0
2018-Feb-18 15:23 090 0 gusting 5 20.0
2018-Feb-18 15:19 180 19.4
2018-Feb-18 15:13 225 4 gusting 5 20.0
2018-Feb-18 15:09 090 0 gusting 4 20.0
2018-Feb-18 15:03 270 1 gusting 4 20.0
2018-Feb-18 14:59 180 4 gusting 5 20.0
2018-Feb-18 14:53 225 20.0
2018-Feb-18 14:49 135 0 gusting 2 20.0
2018-Feb-18 14:43 303 0 gusting 4 20.0
2018-Feb-18 14:39 157 2 gusting 4 20.0
2018-Feb-18 14:35 270 0 gusting 2 20.0
2018-Feb-18 14:28 270 1 gusting 4 20.0
2018-Feb-18 14:24 135 0 gusting 2 20.0
2018-Feb-18 14:18 180 1 gusting 5 20.0
2018-Feb-18 14:14 270 1 gusting 2 20.0
2018-Feb-18 14:08 180 0 gusting 2 20.0
2018-Feb-18 14:01 270 2 gusting 3 20.0
2018-Feb-18 13:59 270 3 gusting 3 20.0
2018-Feb-18 13:55 270 1 gusting 6 20.0
2018-Feb-18 13:46 270 3 gusting 4 19.4
2018-Feb-18 13:44 270 4 gusting 5 19.4
2018-Feb-18 13:40 135 2 gusting 3 20.0
2018-Feb-18 13:33 090 2 gusting 3 20.0
2018-Feb-18 13:29 135 2 gusting 5 20.0
2018-Feb-18 13:23 225 0 gusting 4 20.0
2018-Feb-18 13:19 090 2 gusting 3 20.0
2018-Feb-18 13:13 090 0 gusting 4 19.4
2018-Feb-18 13:09 180 3 gusting 4 19.4
2018-Feb-18 13:03 180 2 gusting 4 19.4
2018-Feb-18 12:59 315 2 gusting 3 19.4
2018-Feb-18 12:53 180 2 gusting 2 18.9
2018-Feb-18 12:49 067 0 gusting 3 18.9
2018-Feb-18 12:45 090 1 gusting 3 18.9
2018-Feb-18 12:39 315 18.3
2018-Feb-18 12:34 180 1 gusting 4 18.3
2018-Feb-18 12:28 315 2 gusting 4 18.3
2018-Feb-18 12:24 281 0 gusting 3 18.3
2018-Feb-18 12:18 315 18.3
2018-Feb-18 12:14 090 3 gusting 4 18.3
2018-Feb-18 12:08 315 2 gusting 2 17.8
2018-Feb-18 12:04 045 2 gusting 5 17.8